QPF
0.00 0.00 0.00 0.00 0.00 0.00 0.00 0.00 0.00 0.00 0.00 0.00 0.00 0.00 0.00 0.00 0.00 0.00 0.01 0.01 0.01 0.00 0.00 0.00 0.00 0.00 0.00 0.00 0.00 0.00 0.01 0.02 0.02 0.02 0.02 0.02 0.02 0.01 0.01 0.02 0.03 0.02 0.02
0.00 0.00 0.00 0.00 0.00 0.00 0.00 0.00 0.00 0.00 0.00 0.00 0.00 0.00 0.00 0.00 0.00 0.00 0.00 0.00 0.00 0.00 0.00 0.00 0.00 0.00 0.00 0.00 0.00 0.01 0.01 0.01 0.02 0.02 0.02 0.02 0.02 0.01 0.01 0.01 0.01 0.01 0.01
0.00 0.00 0.00 0.00 0.00 0.00 0.00 0.00 0.00 0.00 0.00 0.00 0.00 0.00 0.00 0.00 0.00 0.00 0.00 0.00 0.00 0.00 0.00 0.00 0.00 0.00 0.00 0.00 0.01 0.01 0.00 0.01 0.01 0.02 0.02 0.02 0.01 0.01 0.01 0.01 0.01 0.01 0.01
0.00 0.00 0.00 0.00 0.00 0.00 0.00 0.00 0.00 0.00 0.00 0.00 0.00 0.00 0.00 0.00 0.00 0.00 0.00 0.00 0.00 0.00 0.00 0.00 0.00 0.00 0.00 0.01 0.00 0.00 0.00 0.00 0.01 0.01 0.01 0.01 0.00 0.00 0.00 0.00 0.00 0.00 0.01
0.00 0.00 0.00 0.00 0.00 0.00 0.00 0.00 0.00 0.00 0.00 0.00 0.00 0.00 0.00 0.00 0.00 0.00 0.00 0.00 0.00 0.00 0.00 0.00 0.00 0.00 0.00 0.01 0.01 0.00 0.00 0.00 0.00 0.01 0.02 0.02 0.01 0.00 0.00 0.00 0.00 0.00 0.01
0.00 0.00 0.00 0.00 0.00 0.00 0.00 0.00 0.00 0.00 0.00 0.00 0.00 0.00 0.00 0.00 0.00 0.00 0.00 0.00 0.00 0.00 0.00 0.00 0.00 0.00 0.00 0.00 0.00 0.00 0.00 0.00 0.00 0.01 0.02 0.01 0.01 0.00 0.00 0.00 0.00 0.00 0.00
0.00 0.00 0.00 0.00 0.00 0.00 0.00 0.00 0.00 0.00 0.00 0.00 0.00 0.00 0.00 0.00 0.00 0.00 0.00 0.00 0.00 0.00 0.00 0.00 0.00 0.00 0.00 0.00 0.00 0.00 0.00 0.00 0.01 0.01 0.01 0.00 0.00 0.00 0.00 0.00 0.00 0.00 0.00
0.00 0.00 0.00 0.00 0.00 0.00 0.00 0.00 0.00 0.00 0.00 0.00 0.00 0.00 0.00 0.00 0.00 0.00 0.00 0.00 0.00 0.00 0.00 0.00 0.00 0.00 0.00 0.00 0.00 0.00 0.00 0.00 0.00 0.01 0.01 0.00 0.00 0.00 0.00 0.00 0.00 0.00 0.01
0.00 0.00 0.00 0.00 0.00 0.00 0.00 0.00 0.00 0.00 0.00 0.00 0.00 0.00 0.00 0.00 0.00 0.00 0.00 0.00 0.00 0.00 0.00 0.00 0.00 0.00 0.00 0.00 0.00 0.00 0.00 0.00 0.00 0.00 0.01 0.00 0.00 0.00 0.00 0.00 0.00 0.00 0.01
0.00 0.00 0.00 0.00 0.00 0.00 0.00 0.00 0.00 0.00 0.00 0.00 0.00 0.00 0.00 0.00 0.00 0.00 0.00 0.00 0.00 0.00 0.00 0.00 0.00 0.00 0.00 0.00 0.00 0.00 0.00 0.00 0.00 0.00 0.00 0.00 0.00 0.00 0.00 0.00 0.00 0.00 0.01
0.00 0.00 0.00 0.00 0.00 0.00 0.00 0.00 0.00 0.00 0.00 0.00 0.00 0.00 0.00 0.00 0.00 0.00 0.00 0.00 0.00 0.00 0.00 0.00 0.00 0.00 0.00 0.00 0.00 0.00 0.00 0.00 0.00 0.00 0.00 0.00 0.00 0.01 0.00 0.00 0.00 0.01 0.02
0.00 0.00 0.00 0.00 0.00 0.00 0.00 0.00 0.00 0.00 0.00 0.00 0.00 0.00 0.00 0.00 0.00 0.00 0.00 0.00 0.00 0.00 0.00 0.00 0.00 0.00 0.00 0.00 0.00 0.00 0.00 0.00 0.00 0.00 0.00 0.00 0.00 0.00 0.01 0.00 0.00 0.00 0.00
0.00 0.00 0.00 0.00 0.00 0.00 0.00 0.00 0.00 0.00 0.00 0.00 0.00 0.00 0.00 0.00 0.00 0.00 0.00 0.00 0.00 0.00 0.00 0.00 0.00 0.00 0.00 0.00 0.00 0.00 0.00 0.00 0.00 0.00 0.00 0.00 0.00 0.00 0.00 0.00 0.00 0.00 0.00
0.00 0.00 0.00 0.00 0.00 0.00 0.00 0.00 0.00 0.00 0.00 0.00 0.00 0.00 0.00 0.00 0.00 0.00 0.00 0.00 0.00 0.00 0.00 0.00 0.00 0.00 0.00 0.00 0.00 0.00 0.00 0.00 0.00 0.00 0.00 0.00 0.00 0.00 0.00 0.00 0.00 0.00 0.00
0.00 0.00 0.00 0.00 0.00 0.00 0.00 0.00 0.00 0.00 0.00 0.00 0.00 0.00 0.00 0.00 0.00 0.00 0.00 0.00 0.00 0.00 0.00 0.00 0.00 0.00 0.00 0.00 0.00 0.00 0.00 0.00 0.00 0.00 0.00 0.00 0.00 0.00 0.00 0.00 0.00 0.00 0.00
0.00 0.00 0.00 0.00 0.00 0.00 0.00 0.00 0.00 0.00 0.00 0.00 0.00 0.00 0.00 0.00 0.00 0.00 0.00 0.00 0.00 0.00 0.00 0.00 0.00 0.00 0.00 0.00 0.00 0.00 0.00 0.00 0.00 0.00 0.00 0.00 0.00 0.00 0.00 0.00 0.00 0.00 0.00
0.00 0.00 0.00 0.00 0.00 0.00 0.00 0.00 0.00 0.00 0.00 0.00 0.00 0.00 0.00 0.00 0.00 0.00 0.00 0.00 0.00 0.00 0.00 0.00 0.00 0.00 0.00 0.00 0.00 0.00 0.00 0.00 0.00 0.00 0.00 0.00 0.00 0.00 0.00 0.00 0.00 0.00 0.00
0.00 0.00 0.00 0.00 0.00 0.00 0.01 0.00 0.00 0.00 0.00 0.00 0.00 0.00 0.00 0.00 0.00 0.00 0.00 0.00 0.00 0.00 0.00 0.00 0.00 0.00 0.00 0.00 0.00 0.00 0.00 0.00 0.00 0.00 0.00 0.00 0.00 0.00 0.00 0.00 0.00 0.00 0.00
0.00 0.00 0.00 0.00 0.00 0.00 0.00 0.00 0.00 0.00 0.00 0.00 0.00 0.00 0.00 0.00 0.00 0.00 0.00 0.00 0.00 0.00 0.00 0.00 0.00 0.00 0.00 0.00 0.00 0.00 0.00 0.00 0.00 0.00 0.00 0.00 0.00 0.00 0.00 0.00 0.00 0.00 0.00
0.01 0.01 0.01 0.01 0.00 0.00 0.00 0.00 0.00 0.00 0.00 0.00 0.00 0.00 0.00 0.00 0.00 0.00 0.00 0.00 0.00 0.00 0.00 0.00 0.00 0.00 0.00 0.00 0.00 0.00 0.00 0.00 0.00 0.00 0.00 0.00 0.00 0.00 0.00 0.00 0.00 0.00 0.00
0.01 0.01 0.02 0.01 0.01 0.01 0.00 0.00 0.01 0.00 0.00 0.00 0.00 0.00 0.00 0.00 0.00 0.00 0.00 0.00 0.00 0.00 0.00 0.00 0.00 0.00 0.00 0.00 0.00 0.00 0.00 0.00 0.00 0.00 0.00 0.00 0.00 0.00 0.00 0.00 0.00 0.00 0.00
0.01 0.01 0.01 0.02 0.02 0.01 0.01 0.01 0.01 0.01 0.01 0.01 0.00 0.00 0.00 0.00 0.00 0.00 0.00 0.00 0.00 0.00 0.00 0.00 0.00 0.00 0.00 0.00 0.00 0.00 0.00 0.00 0.00 0.00 0.00 0.00 0.00 0.00 0.00 0.00 0.00 0.00 0.00
0.01 0.01 0.02 0.02 0.03 0.03 0.02 0.02 0.01 0.01 0.01 0.01 0.01 0.00 0.00 0.00 0.00 0.00 0.00 0.00 0.00 0.00 0.00 0.00 0.00 0.00 0.00 0.00 0.00 0.00 0.00 0.00 0.00 0.00 0.00 0.00 0.00 0.00 0.00 0.00 0.00 0.00 0.00
0.01 0.01 0.02 0.02 0.03 0.04 0.03 0.02 0.02 0.01 0.01 0.01 0.01 0.01 0.00 0.00 0.00 0.00 0.00 0.00 0.00 0.00 0.00 0.00 0.00 0.00 0.00 0.00 0.00 0.00 0.00 0.00 0.00 0.00 0.00 0.00 0.00 0.00 0.00 0.00 0.00 0.00 0.00
0.01 0.01 0.02 0.03 0.04 0.04 0.04 0.04 0.03 0.02 0.01 0.01 0.01 0.01 0.01 0.01 0.00 0.00 0.00 0.00 0.00 0.00 0.00 0.00 0.00 0.00 0.00 0.00 0.00 0.00 0.00 0.00 0.00 0.00 0.00 0.00 0.00 0.00 0.00 0.00 0.00 0.00 0.00
0.01 0.01 0.02 0.03 0.03 0.04 0.04 0.04 0.04 0.03 0.02 0.01 0.01 0.02 0.02 0.01 0.01 0.01 0.01 0.00 0.00 0.00 0.00 0.00 0.00 0.00 0.00 0.00 0.00 0.00 0.00 0.00 0.00 0.00 0.00 0.00 0.00 0.00 0.00 0.00 0.00 0.00 0.00
MSLP
1010.97 1011.26 1011.53 1011.76 1011.93 1012.03 1012.07 1012.07 1012.06 1012.04 1012.05 1012.08 1012.13 1012.20 1012.27 1012.33 1012.37 1012.38 1012.36 1012.33 1012.28 1012.22 1012.18 1012.14 1012.12 1012.13 1012.17 1012.25 1012.36 1012.51 1012.68 1012.88 1013.07 1013.25 1013.39 1013.48 1013.51 1013.47 1013.40 1013.30 1013.19 1013.12 1013.08
1010.77 1011.08 1011.37 1011.61 1011.79 1011.89 1011.94 1011.94 1011.91 1011.89 1011.90 1011.93 1011.99 1012.09 1012.20 1012.31 1012.41 1012.49 1012.53 1012.55 1012.54 1012.50 1012.46 1012.41 1012.37 1012.36 1012.39 1012.46 1012.58 1012.75 1012.97 1013.21 1013.45 1013.68 1013.86 1013.97 1014.02 1013.98 1013.89 1013.77 1013.63 1013.50 1013.42
1010.49 1010.84 1011.17 1011.45 1011.65 1011.77 1011.83 1011.83 1011.81 1011.78 1011.78 1011.81 1011.88 1011.99 1012.13 1012.28 1012.42 1012.55 1012.64 1012.71 1012.73 1012.72 1012.68 1012.64 1012.60 1012.58 1012.59 1012.66 1012.79 1012.98 1013.22 1013.50 1013.78 1014.04 1014.26 1014.40 1014.47 1014.45 1014.36 1014.22 1014.07 1013.91 1013.79
1010.12 1010.53 1010.91 1011.24 1011.49 1011.65 1011.73 1011.75 1011.74 1011.72 1011.72 1011.74 1011.82 1011.93 1012.07 1012.24 1012.41 1012.56 1012.69 1012.78 1012.84 1012.86 1012.84 1012.81 1012.77 1012.76 1012.77 1012.84 1012.98 1013.17 1013.42 1013.71 1014.01 1014.30 1014.54 1014.71 1014.80 1014.80 1014.73 1014.60 1014.45 1014.28 1014.13
1009.67 1010.14 1010.59 1010.97 1011.27 1011.49 1011.61 1011.67 1011.69 1011.69 1011.69 1011.72 1011.79 1011.89 1012.03 1012.19 1012.35 1012.52 1012.66 1012.77 1012.85 1012.90 1012.91 1012.90 1012.89 1012.88 1012.91 1012.98 1013.11 1013.30 1013.54 1013.83 1014.13 1014.41 1014.66 1014.86 1014.97 1015.00 1014.96 1014.86 1014.71 1014.55 1014.40
1009.16 1009.68 1010.18 1010.62 1010.98 1011.26 1011.44 1011.55 1011.61 1011.64 1011.67 1011.71 1011.77 1011.86 1011.97 1012.11 1012.26 1012.40 1012.54 1012.66 1012.76 1012.83 1012.87 1012.90 1012.92 1012.94 1012.98 1013.06 1013.18 1013.35 1013.58 1013.83 1014.11 1014.38 1014.63 1014.83 1014.97 1015.03 1015.03 1014.96 1014.85 1014.71 1014.55
1008.62 1009.16 1009.69 1010.18 1010.59 1010.92 1011.17 1011.34 1011.46 1011.54 1011.60 1011.66 1011.72 1011.79 1011.88 1011.98 1012.10 1012.22 1012.34 1012.46 1012.56 1012.66 1012.74 1012.81 1012.86 1012.92 1012.98 1013.07 1013.18 1013.33 1013.52 1013.74 1013.98 1014.22 1014.45 1014.65 1014.80 1014.90 1014.94 1014.92 1014.85 1014.74 1014.61
1008.10 1008.62 1009.14 1009.64 1010.08 1010.45 1010.76 1011.00 1011.19 1011.33 1011.44 1011.53 1011.60 1011.66 1011.73 1011.79 1011.87 1011.95 1012.05 1012.16 1012.27 1012.39 1012.51 1012.62 1012.73 1012.82 1012.92 1013.01 1013.11 1013.24 1013.39 1013.56 1013.75 1013.96 1014.17 1014.37 1014.53 1014.66 1014.74 1014.77 1014.75 1014.69 1014.58
1007.62 1008.07 1008.54 1009.00 1009.45 1009.85 1010.20 1010.51 1010.77 1010.98 1011.16 1011.29 1011.39 1011.45 1011.50 1011.54 1011.59 1011.64 1011.71 1011.81 1011.93 1012.07 1012.22 1012.38 1012.53 1012.66 1012.78 1012.89 1012.99 1013.10 1013.21 1013.34 1013.49 1013.67 1013.85 1014.04 1014.22 1014.38 1014.50 1014.58 1014.62 1014.60 1014.53
1007.20 1007.53 1007.91 1008.31 1008.72 1009.12 1009.51 1009.88 1010.21 1010.50 1010.75 1010.94 1011.08 1011.17 1011.22 1011.25 1011.27 1011.30 1011.35 1011.43 1011.56 1011.72 1011.90 1012.09 1012.28 1012.46 1012.61 1012.74 1012.85 1012.94 1013.03 1013.13 1013.25 1013.40 1013.57 1013.76 1013.95 1014.14 1014.30 1014.42 1014.50 1014.53 1014.50
1006.86 1007.03 1007.28 1007.58 1007.93 1008.32 1008.73 1009.14 1009.54 1009.91 1010.24 1010.51 1010.70 1010.83 1010.91 1010.94 1010.96 1010.97 1011.01 1011.09 1011.21 1011.38 1011.59 1011.81 1012.03 1012.24 1012.43 1012.58 1012.70 1012.79 1012.88 1012.97 1013.08 1013.21 1013.38 1013.57 1013.78 1013.99 1014.18 1014.34 1014.46 1014.52 1014.52
1006.59 1006.60 1006.69 1006.88 1007.15 1007.51 1007.91 1008.36 1008.82 1009.27 1009.68 1010.02 1010.29 1010.48 1010.60 1010.66 1010.68 1010.70 1010.74 1010.81 1010.93 1011.10 1011.32 1011.56 1011.80 1012.04 1012.25 1012.42 1012.57 1012.68 1012.78 1012.88 1013.00 1013.14 1013.31 1013.52 1013.74 1013.97 1014.19 1014.38 1014.52 1014.60 1014.62
1006.42 1006.25 1006.19 1006.26 1006.45 1006.75 1007.14 1007.61 1008.12 1008.63 1009.11 1009.54 1009.88 1010.14 1010.31 1010.42 1010.47 1010.51 1010.55 1010.62 1010.74 1010.90 1011.11 1011.36 1011.62 1011.87 1012.10 1012.31 1012.48 1012.63 1012.76 1012.89 1013.04 1013.20 1013.40 1013.62 1013.86 1014.10 1014.32 1014.52 1014.67 1014.76 1014.78
1006.32 1006.00 1005.81 1005.76 1005.86 1006.10 1006.47 1006.94 1007.48 1008.04 1008.59 1009.08 1009.50 1009.83 1010.07 1010.23 1010.33 1010.39 1010.45 1010.52 1010.64 1010.79 1010.99 1011.23 1011.49 1011.75 1012.00 1012.24 1012.45 1012.64 1012.82 1013.00 1013.19 1013.39 1013.62 1013.86 1014.10 1014.35 1014.57 1014.76 1014.89 1014.97 1014.98
1006.30 1005.86 1005.55 1005.40 1005.42 1005.60 1005.93 1006.39 1006.93 1007.52 1008.11 1008.66 1009.15 1009.55 1009.86 1010.08 1010.24 1010.34 1010.42 1010.51 1010.62 1010.77 1010.95 1011.18 1011.42 1011.69 1011.95 1012.22 1012.47 1012.71 1012.95 1013.19 1013.43 1013.68 1013.94 1014.19 1014.44 1014.68 1014.88 1015.04 1015.15 1015.20 1015.19
1006.33 1005.80 1005.41 1005.18 1005.12 1005.24 1005.52 1005.94 1006.46 1007.05 1007.66 1008.26 1008.80 1009.27 1009.65 1009.94 1010.16 1010.32 1010.44 1010.55 1010.66 1010.80 1010.98 1011.18 1011.42 1011.68 1011.96 1012.25 1012.54 1012.84 1013.14 1013.43 1013.73 1014.02 1014.30 1014.57 1014.82 1015.04 1015.21 1015.34 1015.41 1015.42 1015.38
1006.36 1005.79 1005.34 1005.05 1004.92 1004.98 1005.19 1005.55 1006.03 1006.60 1007.21 1007.83 1008.41 1008.94 1009.39 1009.76 1010.05 1010.27 1010.45 1010.59 1010.73 1010.87 1011.03 1011.23 1011.46 1011.72 1012.01 1012.32 1012.65 1012.99 1013.34 1013.69 1014.03 1014.36 1014.67 1014.95 1015.18 1015.37 1015.51 1015.59 1015.62 1015.60 1015.52
1006.36 1005.77 1005.29 1004.94 1004.75 1004.73 1004.87 1005.16 1005.58 1006.10 1006.69 1007.31 1007.92 1008.50 1009.02 1009.47 1009.85 1010.15 1010.40 1010.59 1010.77 1010.93 1011.10 1011.29 1011.52 1011.78 1012.08 1012.41 1012.77 1013.15 1013.54 1013.93 1014.31 1014.67 1014.98 1015.26 1015.47 1015.64 1015.74 1015.78 1015.77 1015.71 1015.61
1006.26 1005.67 1005.17 1004.79 1004.54 1004.45 1004.51 1004.71 1005.06 1005.52 1006.07 1006.68 1007.31 1007.94 1008.53 1009.06 1009.53 1009.93 1010.25 1010.52 1010.75 1010.95 1011.14 1011.35 1011.58 1011.84 1012.15 1012.50 1012.88 1013.28 1013.71 1014.12 1014.52 1014.89 1015.21 1015.47 1015.67 1015.81 1015.88 1015.89 1015.85 1015.77 1015.65
1006.03 1005.46 1004.96 1004.55 1004.25 1004.08 1004.05 1004.17 1004.43 1004.82 1005.32 1005.91 1006.56 1007.22 1007.88 1008.50 1009.07 1009.56 1009.99 1010.34 1010.64 1010.90 1011.13 1011.36 1011.61 1011.89 1012.20 1012.56 1012.95 1013.38 1013.81 1014.24 1014.65 1015.03 1015.34 1015.59 1015.77 1015.88 1015.93 1015.92 1015.86 1015.77 1015.65
1005.67 1005.13 1004.63 1004.19 1003.85 1003.61 1003.50 1003.53 1003.70 1004.02 1004.47 1005.03 1005.68 1006.38 1007.10 1007.80 1008.47 1009.07 1009.59 1010.05 1010.43 1010.75 1011.04 1011.31 1011.59 1011.88 1012.22 1012.58 1012.99 1013.42 1013.86 1014.29 1014.70 1015.06 1015.37 1015.61 1015.77 1015.87 1015.90 1015.88 1015.82 1015.73 1015.61
1005.19 1004.69 1004.20 1003.75 1003.36 1003.07 1002.88 1002.83 1002.92 1003.16 1003.56 1004.09 1004.73 1005.45 1006.22 1006.99 1007.75 1008.44 1009.07 1009.62 1010.10 1010.50 1010.86 1011.18 1011.50 1011.83 1012.18 1012.56 1012.97 1013.40 1013.84 1014.27 1014.67 1015.02 1015.32 1015.55 1015.70 1015.79 1015.83 1015.81 1015.75 1015.66 1015.56
1004.66 1004.19 1003.72 1003.27 1002.86 1002.51 1002.25 1002.12 1002.14 1002.31 1002.65 1003.14 1003.76 1004.49 1005.29 1006.12 1006.94 1007.72 1008.44 1009.09 1009.65 1010.14 1010.57 1010.96 1011.33 1011.70 1012.08 1012.48 1012.90 1013.34 1013.78 1014.20 1014.59 1014.93 1015.22 1015.44 1015.59 1015.68 1015.71 1015.70 1015.66 1015.58 1015.48
1004.10 1003.68 1003.24 1002.79 1002.36 1001.98 1001.67 1001.48 1001.43 1001.53 1001.81 1002.25 1002.84 1003.56 1004.36 1005.22 1006.09 1006.94 1007.74 1008.47 1009.11 1009.69 1010.20 1010.66 1011.10 1011.52 1011.94 1012.37 1012.81 1013.25 1013.69 1014.10 1014.49 1014.82 1015.10 1015.31 1015.46 1015.55 1015.59 1015.58 1015.54 1015.47 1015.37
1003.54 1003.17 1002.76 1002.33 1001.89 1001.49 1001.15 1000.90 1000.79 1000.84 1001.05 1001.44 1001.99 1002.68 1003.47 1004.34 1005.24 1006.13 1006.98 1007.78 1008.51 1009.17 1009.76 1010.30 1010.81 1011.29 1011.76 1012.23 1012.69 1013.15 1013.59 1014.01 1014.38 1014.71 1014.97 1015.18 1015.32 1015.40 1015.44 1015.44 1015.40 1015.32 1015.22
1002.95 1002.62 1002.25 1001.84 1001.41 1001.00 1000.64 1000.37 1000.22 1000.21 1000.38 1000.71 1001.22 1001.87 1002.64 1003.50 1004.40 1005.32 1006.22 1007.08 1007.88 1008.61 1009.29 1009.91 1010.49 1011.04 1011.57 1012.08 1012.58 1013.06 1013.51 1013.92 1014.29 1014.60 1014.85 1015.04 1015.17 1015.24 1015.27 1015.25 1015.20 1015.11 1014.98
Thickness
5719 5716 5713 5710 5707 5704 5700 5698 5695 5693 5691 5688 5685 5683 5681 5679 5677 5675 5673 5673 5672 5672 5672 5672 5672 5672 5673 5674 5676 5677 5678 5679 5676 5678 5684 5688 5691 5694 5697 5700 5703 5705 5707
5720 5716 5713 5710 5707 5703 5701 5699 5697 5694 5692 5690 5687 5684 5682 5680 5678 5676 5674 5673 5671 5670 5670 5670 5670 5671 5670 5671 5672 5673 5674 5676 5675 5674 5677 5681 5685 5688 5691 5694 5696 5699 5701
5719 5716 5712 5709 5706 5703 5701 5700 5697 5695 5693 5691 5688 5685 5683 5681 5679 5677 5675 5674 5672 5671 5670 5670 5669 5669 5668 5669 5669 5669 5670 5672 5672 5671 5672 5675 5678 5682 5684 5687 5689 5691 5695
5719 5715 5711 5709 5707 5705 5703 5700 5698 5696 5693 5691 5689 5686 5684 5682 5680 5678 5676 5674 5672 5671 5671 5670 5670 5669 5668 5668 5668 5667 5668 5667 5667 5667 5667 5669 5671 5675 5677 5677 5679 5683 5686
5718 5714 5712 5710 5708 5705 5702 5700 5698 5696 5694 5692 5689 5687 5685 5682 5681 5679 5676 5674 5672 5671 5671 5671 5670 5670 5670 5669 5668 5666 5665 5664 5663 5663 5663 5664 5665 5667 5669 5671 5672 5674 5677
5718 5715 5713 5710 5707 5704 5702 5700 5698 5695 5694 5691 5689 5687 5685 5685 5684 5682 5678 5675 5673 5672 5670 5670 5670 5670 5670 5669 5668 5667 5666 5663 5661 5660 5659 5660 5661 5663 5664 5665 5665 5665 5667
5717 5715 5712 5709 5706 5703 5702 5699 5696 5694 5693 5690 5689 5687 5685 5685 5685 5683 5681 5677 5674 5672 5671 5669 5670 5670 5668 5666 5666 5666 5665 5664 5663 5660 5658 5658 5659 5660 5661 5660 5659 5659 5660
5716 5713 5711 5708 5705 5702 5699 5697 5695 5693 5691 5690 5688 5686 5685 5685 5684 5683 5681 5677 5674 5672 5671 5669 5668 5667 5667 5665 5663 5662 5661 5661 5661 5660 5659 5659 5659 5659 5658 5657 5656 5654 5655
5713 5711 5710 5707 5704 5700 5697 5696 5694 5692 5690 5689 5688 5686 5684 5684 5684 5683 5680 5676 5673 5672 5671 5670 5668 5667 5667 5665 5662 5659 5658 5658 5659 5659 5658 5657 5657 5656 5655 5652 5650 5648 5647
5712 5711 5709 5707 5704 5700 5698 5695 5693 5691 5689 5688 5686 5685 5683 5682 5683 5682 5680 5675 5671 5669 5669 5669 5668 5667 5666 5664 5660 5657 5655 5654 5655 5654 5653 5653 5652 5652 5651 5648 5646 5642 5641
5710 5709 5707 5705 5703 5700 5697 5694 5691 5689 5686 5684 5683 5682 5681 5681 5681 5681 5679 5673 5671 5668 5666 5665 5665 5666 5665 5663 5660 5656 5655 5652 5650 5648 5647 5646 5645 5645 5644 5643 5641 5639 5636
5704 5703 5702 5701 5700 5698 5693 5690 5688 5685 5682 5679 5677 5676 5676 5676 5677 5677 5676 5673 5671 5666 5664 5663 5662 5662 5661 5659 5656 5654 5651 5648 5645 5642 5640 5638 5637 5637 5636 5636 5635 5634 5632
5696 5696 5697 5697 5695 5694 5690 5686 5682 5680 5678 5675 5673 5671 5670 5670 5671 5672 5672 5670 5668 5664 5661 5660 5659 5658 5656 5653 5651 5648 5645 5642 5638 5635 5633 5631 5630 5629 5629 5628 5627 5626 5625
5686 5689 5689 5689 5688 5687 5686 5683 5679 5677 5674 5672 5670 5668 5665 5664 5664 5664 5664 5663 5662 5659 5656 5654 5653 5651 5648 5646 5643 5640 5638 5635 5632 5629 5626 5624 5623 5621 5619 5618 5616 5615 5613
5673 5678 5680 5681 5681 5679 5678 5678 5677 5678 5676 5673 5670 5667 5662 5660 5661 5661 5659 5657 5655 5653 5649 5646 5643 5641 5638 5636 5634 5632 5629 5627 5624 5621 5618 5616 5614 5612 5610 5608 5606 5604 5601
5659 5663 5667 5669 5670 5670 5668 5664 5666 5668 5670 5670 5668 5665 5663 5662 5659 5656 5654 5653 5650 5648 5643 5639 5636 5634 5631 5629 5626 5623 5621 5618 5616 5613 5610 5607 5604 5602 5599 5597 5595 5592 5590
5644 5649 5654 5657 5659 5659 5659 5658 5654 5653 5657 5659 5659 5658 5656 5654 5652 5649 5647 5645 5642 5640 5635 5632 5629 5626 5624 5621 5618 5615 5612 5610 5607 5604 5601 5597 5594 5592 5589 5586 5583 5581 5578
5628 5635 5640 5645 5648 5650 5651 5651 5651 5648 5644 5643 5646 5647 5647 5645 5643 5641 5638 5634 5630 5629 5627 5625 5622 5619 5616 5613 5610 5607 5604 5601 5598 5594 5591 5588 5585 5582 5578 5575 5572 5570 5567
5610 5618 5624 5630 5635 5638 5640 5641 5641 5640 5639 5635 5632 5633 5635 5634 5632 5631 5629 5626 5624 5621 5619 5617 5614 5611 5608 5605 5602 5599 5595 5592 5588 5585 5581 5578 5575 5571 5568 5565 5562 5560 5557
5593 5601 5608 5614 5620 5624 5627 5628 5630 5630 5629 5627 5627 5627 5624 5620 5619 5619 5618 5617 5616 5614 5612 5609 5606 5604 5600 5597 5593 5590 5586 5583 5579 5575 5572 5568 5565 5561 5558 5555 5551 5548 5545
5575 5583 5591 5598 5605 5611 5615 5618 5621 5622 5622 5622 5622 5621 5620 5618 5616 5614 5612 5610 5609 5607 5604 5601 5598 5595 5592 5589 5585 5581 5578 5573 5570 5566 5562 5558 5555 5551 5548 5544 5541 5537 5534
5557 5565 5573 5582 5590 5598 5603 5608 5611 5614 5616 5615 5613 5611 5610 5609 5608 5607 5605 5604 5602 5600 5598 5594 5591 5588 5585 5581 5578 5573 5569 5564 5560 5556 5552 5548 5545 5541 5537 5533 5530 5526 5523
5540 5549 5557 5566 5574 5584 5590 5595 5600 5604 5606 5607 5606 5604 5602 5601 5601 5600 5599 5597 5594 5591 5589 5586 5582 5579 5576 5573 5570 5566 5561 5556 5552 5548 5543 5539 5534 5530 5526 5522 5519 5515 5512
5524 5532 5541 5550 5558 5568 5576 5583 5589 5594 5596 5597 5598 5598 5597 5596 5595 5593 5591 5589 5586 5583 5580 5577 5574 5571 5567 5563 5560 5556 5552 5548 5543 5538 5534 5529 5524 5520 5515 5511 5507 5504 5500
5511 5517 5525 5534 5543 5553 5562 5570 5576 5582 5586 5589 5590 5591 5590 5588 5586 5585 5582 5580 5577 5574 5571 5568 5565 5561 5558 5554 5550 5545 5541 5537 5532 5528 5523 5518 5514 5509 5504 5500 5496 5493 5489
5499 5505 5513 5521 5530 5539 5549 5557 5564 5570 5575 5579 5581 5582 5581 5580 5578 5576 5573 5571 5568 5565 5561 5558 5555 5551 5547 5543 5539 5535 5530 5526 5521 5517 5513 5508 5503 5498 5494 5489 5486 5482 5479